Waukegan, IL

3:30 PM CDT on September 23, 2017 (GMT -0500)
Waukegan Regional

Weather History for KUGN - December, 2012

Change the Weather History Date:

Thursday, December 13, 2012

  Actual Average Record
Temperature  
Mean Temperature 41 °F -  
Max Temperature 49 °F 35 °F 61 °F (2015)
Min Temperature 33 °F 21 °F -7 °F (2000)
Degree Days  
Heating Degree Days 24 37  
Month to date heating degree days 323 461  
Since 1 July heating degree days 1762 1846  
Cooling Degree Days 0 0  
Month to date cooling degree days 0 0  
Year to date cooling degree days 983 564  
Moisture  
Dew Point 25 °F    
Average Humidity 58    
Maximum Humidity 82    
Minimum Humidity 34    
Precipitation  
Precipitation 0.00 in 0.06 in 0.71 in (2015)
Month to date precipitation 0.85 1.02  
Year to date precipitation 24.26 34.61  
Sea Level Pressure  
Sea Level Pressure 30.19 in    
Wind  
Wind Speed 13 mph (SSW)    
Max Wind Speed 25 mph    
Max Gust Speed 33 mph    
Visibility 10 miles    
Events      
T = Trace of Precipitation, MM = Missing Value Source: NWS Daily Summary

Daily Weather History Graph

Daily Weather History Graph

Search for Another Location

Airport or City:

Trip Planner

Search our weather history database for the weather conditions in past years. The results will help you decide how hot, cold, wet, or windy it might be!

Date:

Astronomy

Dec. 13, 2012 Rise Set
Actual Time 7:12 AM CST 4:19 PM CST
Civil Twilight 6:40 AM CST 4:51 PM CST
Nautical Twilight 6:05 AM CST 5:26 PM CST
Astronomical Twilight 5:31 AM CST 6:00 PM CST
Moon 7:20 AM CST (12/13) 5:01 PM CST (12/13)
Length of Visible Light 10h 10m
Length of Day
9h 06m
New Moon, 0% of the Moon is Illuminated
Dec 13
New Moon
Dec 19
First Quarter
Dec 28
Full
Jan 4
Last Quarter
Jan 11
New

Hourly Weather History & Observations

Time (CST) Temp. Windchill Dew Point Humidity Pressure Visibility Wind Dir Wind Speed Gust Speed Precip Events Conditions
12:52 AM 36.0 °F 26.0 °F 26.1 °F 67% 30.25 in 10.0 mi SSW 17.3 mph - N/A   Clear
1:52 AM 35.1 °F 25.9 °F 25.0 °F 67% 30.25 in 10.0 mi SSW 13.8 mph - N/A   Clear
2:52 AM 34.0 °F 24.6 °F 25.0 °F 70% 30.26 in 10.0 mi SSW 13.8 mph - N/A   Clear
3:52 AM 35.1 °F 25.9 °F 25.0 °F 67% 30.25 in 10.0 mi SSW 13.8 mph - N/A   Clear
4:52 AM 33.1 °F 24.4 °F 24.1 °F 70% 30.26 in 10.0 mi SSW 11.5 mph - N/A   Clear
5:52 AM 34.0 °F 25.0 °F 24.1 °F 67% 30.25 in 10.0 mi South 12.7 mph - N/A   Clear
6:52 AM 33.1 °F 24.4 °F 24.1 °F 70% 30.25 in 10.0 mi South 11.5 mph - N/A   Clear
7:52 AM 34.0 °F 24.6 °F 24.1 °F 67% 30.23 in 10.0 mi South 13.8 mph - N/A   Clear
8:52 AM 37.0 °F 28.5 °F 24.1 °F 59% 30.23 in 10.0 mi South 13.8 mph - N/A   Clear
9:52 AM 42.1 °F 33.6 °F 21.9 °F 45% 30.22 in 10.0 mi South 18.4 mph 26.5 mph N/A   Clear
10:52 AM 45.0 °F 36.6 °F 21.0 °F 39% 30.18 in 10.0 mi South 21.9 mph 31.1 mph N/A   Clear
11:52 AM 46.9 °F - 21.0 °F 36% 30.15 in 10.0 mi South 19.6 mph 27.6 mph N/A   Clear
12:52 PM 48.9 °F - 21.9 °F 35% 30.13 in 10.0 mi SSW 20.7 mph 27.6 mph N/A   Clear
1:52 PM 48.0 °F - 23.0 °F 37% 30.10 in 10.0 mi SSW 20.7 mph - N/A   Clear
2:52 PM 48.0 °F - 25.0 °F 41% 30.08 in 10.0 mi South 17.3 mph 27.6 mph N/A   Clear
3:52 PM 46.9 °F - 25.0 °F 42% 30.08 in 10.0 mi SSW 13.8 mph - N/A   Clear
6:52 PM 37.0 °F 31.0 °F 27.0 °F 67% 30.14 in 10.0 mi SSW 8.1 mph - N/A   Clear
7:52 PM 37.0 °F 31.6 °F 28.0 °F 70% 30.14 in 10.0 mi SW 6.9 mph - N/A   Clear
8:52 PM 34.0 °F 28.0 °F 28.0 °F 79% 30.14 in 10.0 mi SW 6.9 mph - N/A   Clear
9:52 PM 35.1 °F 31.0 °F 28.0 °F 76% 30.15 in 10.0 mi SW 4.6 mph - N/A   Clear
10:52 PM 35.1 °F 29.3 °F 28.9 °F 78% 30.15 in 10.0 mi SSW 6.9 mph - N/A   Clear